EW9255 Weather Reports


time (UTC)temp
C
wind
direction
speed
KPH
gust
KPH
rain 1hr
cm
rain 24hr
cm
rain mn
cm
humidity
%
barometer
mb
20200226222704 1 234 3.2 12.9 0.03 0.15 0.15 90 1004.8
20200226222205 1 288 3.2 14.5 0.03 0.15 0.15 90 1004.8
20200226221705 1 284 3.2 19.3 0.03 0.15 0.15 90 1004.8
20200226221205 1 221 3.2 19.3 0.03 0.15 0.15 90 1004.7
20200226220705 1 303 3.2 19.3 0.03 0.15 0.15 90 1004.7
20200226220205 1 330 1.6 19.3 0.03 0.15 0.15 91 1004.6
20200226215705 1 288 3.2 19.3 0.03 0.15 0.15 91 1004.6
20200226215205 1 231 1.6 19.3 0.03 0.15 0.15 91 1004.6
20200226214705 1 304 1.6 14.5 0.03 0.15 0.15 91 1004.6
20200226214205 1 328 3.2 14.5 0.00 0.13 0.13 91 1004.6
20200226213705 1 251 3.2 19.3 0.00 0.13 0.13 91 1004.6
20200226213205 1 345 3.2 19.3 0.00 0.13 0.13 91 1004.6
20200226212705 1 359 4.8 14.5 0.00 0.13 0.13 91 1004.5
20200226212205 1 203 3.2 14.5 0.00 0.13 0.13 92 1004.5
20200226211705 1 282 3.2 14.5 0.00 0.13 0.13 92 1004.5
20200226211205 1 1 3.2 11.3 0.00 0.13 0.13 92 1004.5
20200226210705 1 324 3.2 11.3 0.00 0.13 0.13 92 1004.5
20200226210205 1 314 3.2 11.3 0.00 0.13 0.13 92 1004.4
20200226205705 1 14 1.6 14.5 0.00 0.13 0.13 92 1004.3
20200226205205 1 201 1.6 14.5 0.00 0.13 0.13 92 1004.2
20200226204705 1 230 1.6 14.5 0.00 0.13 0.13 92 1004.1
20200226204205 1 359 3.2 11.3 0.00 0.13 0.13 92 1004.0
20200226203704 1 314 1.6 11.3 0.00 0.13 0.13 92 1003.9
20200226203205 1 282 3.2 11.3 0.00 0.13 0.13 92 1003.9
20200226202705 1 302 1.6 11.3 0.00 0.13 0.13 92 1003.8
20200226202206 0 272 1.6 11.3 0.00 0.13 0.13 92 1003.9
20200226201705 0 294 1.6 11.3 0.00 0.13 0.13 92 1003.8
20200226201205 0 285 1.6 11.3 0.00 0.13 0.13 92 1003.8
20200226200705 0 287 1.6 9.7 0.00 0.13 0.13 92 1003.8
20200226200205 0 280 1.6 9.7 0.00 0.13 0.13 92 1003.6
20200226195705 0 280 1.6 9.7 0.00 0.13 0.13 93 1003.6
20200226195205 0 269 1.6 9.7 0.00 0.13 0.13 93 1003.6
20200226194705 0 265 1.6 9.7 0.00 0.13 0.13 93 1003.4
20200226194205 0 330 1.6 9.7 0.00 0.13 0.13 93 1003.3
20200226193705 0 342 1.6 9.7 0.00 0.13 0.13 93 1003.3
20200226193205 0 342 1.6 9.7 0.00 0.13 0.13 93 1003.3
20200226192705 0 345 1.6 11.3 0.00 0.13 0.13 93 1003.2
20200226192205 1 255 3.2 11.3 0.00 0.13 0.13 92 1003.3
20200226191705 1 357 1.6 9.7 0.00 0.13 0.13 92 1003.2
20200226191205 1 209 1.6 11.3 0.00 0.13 0.13 92 1003.0
20200226190705 1 319 1.6 11.3 0.00 0.13 0.13 92 1002.9
20200226190205 1 265 1.6 11.3 0.00 0.13 0.13 91 1002.8
20200226185705 1 249 0.0 11.3 0.00 0.13 0.13 91 1002.7
20200226185205 1 245 1.6 14.5 0.00 0.13 0.13 90 1002.6
20200226184705 1 259 1.6 14.5 0.00 0.13 0.13 89 1002.7
20200226184205 1 224 1.6 14.5 0.00 0.13 0.13 88 1002.7
20200226183705 1 286 1.6 11.3 0.00 0.13 0.13 87 1002.6
20200226183205 1 294 1.6 11.3 0.00 0.13 0.13 86 1002.4
20200226182705 1 328 1.6 11.3 0.00 0.13 0.13 85 1002.5
20200226182205 1 236 1.6 9.7 0.00 0.13 0.13 84 1002.4
20200226181705 1 237 3.2 9.7 0.00 0.13 0.13 84 1002.3
20200226181204 1 319 3.2 9.7 0.00 0.13 0.13 85 1002.2
20200226180705 1 328 1.6 16.1 0.00 0.13 0.13 85 1002.1
20200226180205 1 307 1.6 16.1 0.00 0.13 0.13 86 1001.9
20200226175704 1 11 3.2 16.1 0.00 0.13 0.13 86 1001.8
20200226175205 1 198 1.6 9.7 0.00 0.13 0.13 87 1001.7
20200226174705 1 235 1.6 9.7 0.00 0.13 0.13 88 1001.6
20200226174205 1 314 1.6 6.4 0.00 0.13 0.13 88 1001.4
20200226173705 1 236 0.0 6.4 0.00 0.13 0.13 89 1001.3
20200226173205 1 236 0.0 9.7 0.00 0.13 0.13 89 1001.2
20200226172705 1 239 0.0 9.7 0.00 0.13 0.13 89 1001.1
20200226172205 1 304 0.0 11.3 0.00 0.13 0.13 89 1001.1
20200226171705 1 227 1.6 12.9 0.00 0.13 0.13 89 1001.2
20200226171206 1 200 3.2 14.5 0.00 0.13 0.13 90 1001.1
20200226170705 1 218 1.6 14.5 0.00 0.13 0.13 90 1001.0
20200226170205 1 285 1.6 14.5 0.00 0.13 0.13 90 1001.0
20200226165705 1 209 1.6 6.4 0.00 0.13 0.13 90 1000.8
20200226165205 1 286 0.0 6.4 0.00 0.13 0.13 90 1000.8
20200226164705 1 206 1.6 6.4 0.00 0.13 0.13 91 1000.5
20200226164205 1 294 0.0 14.5 0.00 0.13 0.13 91 1000.4
20200226163705 1 275 1.6 14.5 0.00 0.13 0.13 91 1000.2
20200226163205 1 8 1.6 6.4 0.00 0.13 0.13 91 1000.2
20200226162705 1 332 1.6 11.3 0.00 0.13 0.13 91 1000.2
20200226162205 1 259 0.0 11.3 0.00 0.13 0.13 92 1000.1
20200226161705 1 286 1.6 11.3 0.00 0.13 0.13 92 1000.0
20200226161205 1 209 1.6 11.3 0.00 0.13 0.13 92 1000.0
20200226160705 1 274 1.6 11.3 0.00 0.13 0.13 92 1000.0
20200226160205 0 319 1.6 14.5 0.00 0.13 0.13 92 1000.0
20200226155705 0 286 1.6 14.5 0.00 0.13 0.13 93 999.8
20200226155205 0 269 1.6 14.5 0.00 0.13 0.13 93 999.7
20200226154705 0 319 1.6 19.3 0.00 0.13 0.13 93 999.7
20200226154205 0 286 3.2 19.3 0.00 0.13 0.13 93 999.5
20200226153705 0 306 3.2 16.1 0.00 0.13 0.13 93 999.5
20200226153205 0 284 3.2 16.1 0.00 0.13 0.13 93 999.4
20200226152705 0 319 3.2 19.3 0.00 0.13 0.13 93 999.2
20200226152205 0 287 3.2 19.3 0.00 0.13 0.13 92 999.1
20200226151705 0 278 3.2 19.3 0.00 0.13 0.13 92 999.3
20200226151205 0 224 3.2 20.9 0.00 0.13 0.13 91 999.2
20200226150705 0 329 4.8 24.1 0.00 0.13 0.13 90 999.1
20200226150205 0 336 6.4 24.1 0.00 0.13 0.13 90 999.1
20200226145705 0 12 9.7 24.1 0.00 0.13 0.13 89 998.8
20200226145205 1 341 11.3 32.2 0.00 0.13 0.13 87 998.8
20200226144704 1 261 12.9 37.0 0.00 0.13 0.13 84 999.0
20200226144205 2 338 11.3 37.0 0.00 0.13 0.13 81 999.1
20200226143705 3 1 6.4 19.3 0.00 0.13 0.13 78 998.8
20200226143205 3 201 4.8 19.3 0.00 0.13 0.13 79 998.2
20200226142705 3 290 4.8 19.3 0.00 0.13 0.13 79 998.0
20200226142205 3 287 4.8 22.5 0.00 0.13 0.13 80 998.0
20200226141705 3 276 6.4 22.5 0.00 0.13 0.13 79 998.1
20200226141205 3 333 8.0 22.5 0.00 0.13 0.13 78 998.2
20200226140705 3 268 8.0 24.1 0.00 0.13 0.13 74 998.2
20200226140205 4 10 8.0 33.8 0.00 0.13 0.13 73 998.0
20200226135705 4 268 8.0 33.8 0.00 0.13 0.13 70 998.0
20200226135205 5 14 9.7 25.7 0.00 0.13 0.13 66 997.9
20200226134705 5 7 9.7 25.7 0.00 0.13 0.13 64 997.6
20200226134205 5 214 8.0 25.7 0.00 0.13 0.13 62 997.4
20200226133705 5 273 8.0 35.4 0.00 0.13 0.13 61 997.4
20200226133205 5 286 9.7 35.4 0.00 0.13 0.13 62 997.4
20200226132704 5 239 11.3 35.4 0.00 0.13 0.13 61 997.3
20200226132205 5 332 8.0 22.5 0.00 0.13 0.13 60 997.2
20200226131705 5 358 4.8 22.5 0.00 0.13 0.13 61 997.1
20200226131205 6 286 1.6 16.1 0.00 0.13 0.13 63 997.1
20200226130704 6 332 3.2 16.1 0.00 0.13 0.13 65 997.2
20200226130206 6 278 4.8 16.1 0.00 0.13 0.13 62 997.1
20200226125705 6 337 4.8 17.7 0.00 0.13 0.13 62 996.9
20200226125205 6 263 3.2 19.3 0.00 0.13 0.13 63 996.9
20200226124704 6 331 4.8 19.3 0.00 0.13 0.13 65 997.1
20200226124205 5 288 4.8 19.3 0.00 0.13 0.13 61 996.7
20200226123704 5 340 4.8 19.3 0.00 0.13 0.13 62 996.7
20200226123205 6 265 4.8 19.3 0.00 0.13 0.13 60 996.7
20200226122705 6 295 3.2 17.7 0.00 0.13 0.13 62 996.5
20200226122205 6 10 4.8 20.9 0.00 0.13 0.13 63 996.4
20200226121705 5 324 4.8 20.9 0.00 0.13 0.13 61 996.3
20200226121205 5 329 6.4 20.9 0.00 0.13 0.13 61 996.4
20200226120705 5 324 6.4 27.4 0.00 0.13 0.13 59 996.4
20200226120205 5 278 8.0 27.4 0.00 0.13 0.13 60 996.4
20200226115705 5 257 8.0 27.4 0.00 0.13 0.13 59 996.5
20200226115205 6 132 4.8 20.9 0.00 0.13 0.13 57 996.5
20200226114705 6 340 4.8 24.1 0.00 0.13 0.13 59 996.5
20200226114205 6 305 8.0 24.1 0.00 0.13 0.13 58 996.5
20200226113705 6 267 8.0 25.7 0.00 0.13 0.13 57 996.5
20200226113205 6 324 8.0 25.7 0.00 0.13 0.13 57 996.5
20200226112705 6 330 9.7 25.7 0.00 0.13 0.13 57 996.5
20200226112205 6 355 9.7 25.7 0.00 0.13 0.13 61 996.7
20200226111705 6 346 9.7 25.7 0.00 0.13 0.13 60 996.6
20200226111205 6 346 8.0 20.9 0.00 0.13 0.13 60 996.6
20200226110705 6 0 6.4 25.7 0.00 0.13 0.13 60 996.6
20200226110204 6 238 8.0 25.7 0.00 0.13 0.13 62 996.7
20200226105706 6 259 6.4 25.7 0.00 0.13 0.13 63 996.8
20200226105205 5 329 3.2 22.5 0.00 0.13 0.13 67 996.8
20200226104705 5 253 4.8 22.5 0.00 0.13 0.13 66 996.6
20200226104205 5 222 6.4 22.5 0.00 0.13 0.13 65 996.5
20200226103705 5 324 6.4 22.5 0.00 0.13 0.13 64 996.4
20200226103204 5 305 6.4 27.4 0.00 0.13 0.13 64 996.5
20200226102705 5 1 6.4 27.4 0.00 0.13 0.13 64 996.6
20200226102205 5 314 6.4 27.4 0.00 0.13 0.13 66 996.6
20200226101705 5 224 6.4 19.3 0.00 0.13 0.13 70 996.4
20200226101205 5 263 4.8 20.9 0.00 0.13 0.13 67 996.2
20200226100705 4 336 4.8 20.9 0.00 0.13 0.13 68 996.2
20200226100205 4 287 6.4 22.5 0.00 0.13 0.13 69 996.4
20200226095705 4 288 6.4 22.5 0.00 0.13 0.13 69 996.2
20200226095205 4 357 4.8 17.7 0.00 0.13 0.13 69 996.7
20200226094705 4 335 4.8 25.7 0.00 0.13 0.13 70 996.7
20200226094205 3 264 8.0 25.7 0.00 0.13 0.13 70 996.9
20200226093704 3 266 6.4 25.7 0.00 0.13 0.13 70 996.9
20200226093205 3 356 4.8 20.9 0.00 0.13 0.13 71 996.9
20200226092705 3 331 4.8 19.3 0.00 0.13 0.13 71 996.9
20200226092205 3 251 4.8 16.1 0.00 0.13 0.13 73 996.9
20200226091705 3 200 4.8 16.1 0.00 0.13 0.13 73 996.8
20200226091205 3 243 4.8 16.1 0.00 0.13 0.13 74 996.8
20200226090705 3 287 4.8 16.1 0.00 0.13 0.13 76 996.8
20200226090205 3 288 3.2 16.1 0.00 0.13 0.13 78 996.6
20200226085705 2 290 3.2 16.1 0.03 0.13 0.13 78 996.6
20200226085205 2 309 3.2 11.3 0.03 0.13 0.13 79 996.8
20200226084705 2 265 1.6 8.0 0.03 0.13 0.13 82 996.8
20200226084205 2 10 1.6 8.0 0.03 0.13 0.13 85 997.0
20200226083705 2 225 0.0 9.7 0.03 0.13 0.13 86 997.2
20200226083206 2 314 1.6 9.7 0.03 0.13 0.13 87 997.1
20200226082705 2 253 1.6 11.3 0.03 0.13 0.13 88 997.3
20200226082205 2 270 1.6 11.3 0.03 0.13 0.13 89 997.2
20200226081705 1 247 1.6 11.3 0.03 0.13 0.13 90 997.3
20200226081204 1 355 1.6 9.7 0.03 0.13 0.13 91 997.3
20200226080705 1 332 1.6 9.7 0.03 0.13 0.13 91 997.2
20200226080205 1 338 1.6 9.7 0.03 0.13 0.13 92 997.3
20200226075705 1 349 3.2 16.1 0.00 0.10 0.10 91 997.2
20200226075205 1 290 3.2 16.1 0.00 0.10 0.10 90 997.3
20200226074705 1 294 4.8 20.9 0.00 0.10 0.10 89 997.3
20200226074205 1 324 4.8 20.9 0.00 0.10 0.10 88 997.3
20200226073705 2 263 4.8 20.9 0.00 0.10 0.10 87 997.4
20200226073204 2 167 3.2 16.1 0.00 0.10 0.10 84 997.3
20200226072705 2 207 3.2 11.3 0.00 0.10 0.10 83 997.7
20200226072205 2 277 1.6 11.3 0.00 0.10 0.10 82 997.4
20200226071705 2 314 1.6 9.7 0.00 0.10 0.10 83 997.2
20200226071205 2 269 1.6 11.3 0.00 0.10 0.10 82 997.2
20200226070705 2 280 1.6 11.3 0.00 0.10 0.10 83 997.1
20200226070204 2 334 1.6 12.9 0.00 0.10 0.10 83 997.1
20200226065705 2 296 3.2 19.3 0.00 0.10 0.10 83 997.2
20200226065205 2 247 4.8 19.3 0.00 0.10 0.10 83 997.3
20200226064705 2 33 4.8 20.9 0.00 0.10 0.10 83 997.3
20200226064205 2 357 3.2 20.9 0.00 0.10 0.10 84 997.0
20200226063705 2 304 4.8 19.3 0.00 0.10 0.10 84 996.9
20200226063205 2 278 4.8 19.3 0.00 0.13 0.10 85 996.8
20200226062704 2 307 3.2 16.1 0.00 0.13 0.10 86 996.9
20200226062205 2 343 3.2 16.1 0.00 0.13 0.10 86 997.0
20200226061705 2 301 3.2 16.1 0.00 0.13 0.10 87 997.2
20200226061205 2 281 3.2 17.7 0.00 0.13 0.10 87 997.1
20200226060705 2 15 3.2 17.7 0.00 0.13 0.10 88 996.9
20200226060205 2 349 4.8 22.5 0.00 0.13 0.10 87 996.7
20200226055704 2 324 6.4 22.5 0.00 0.13 0.10 88 996.8
20200226055205 2 288 6.4 22.5 0.03 0.13 0.10 88 996.8
20200226054704 2 324 4.8 16.1 0.05 0.13 0.10 89 996.7
20200226054205 2 332 3.2 14.5 0.05 0.13 0.10 90 996.7
20200226053704 2 235 1.6 14.5 0.05 0.13 0.10 90 996.6
20200226053204 2 274 1.6 12.9 0.05 0.13 0.10 90 996.3
20200226052705 2 330 1.6 11.3 0.05 0.13 0.10 90 996.3
20200226052205 2 336 1.6 11.3 0.05 0.13 0.10 90 996.3
20200226051705 2 314 1.6 11.3 0.05 0.13 0.10 90 996.5
20200226051205 2 258 1.6 11.3 0.05 0.13 0.10 89 996.5
20200226050704 2 279 0.0 4.8 0.05 0.13 0.10 88 996.2
20200226050205 3 279 0.0 9.7 0.05 0.13 0.10 86 996.1
20200226045704 3 278 1.6 20.9 0.05 0.13 0.10 85 996.1
20200226045205 4 336 3.2 20.9 0.03 0.08 0.05 84 996.0
20200226044705 4 303 4.8 20.9 0.00 0.05 0.05 84 996.3
20200226044204 4 8 4.8 17.7 0.00 0.05 0.05 81 996.1
20200226043705 4 358 4.8 17.7 0.00 0.05 0.05 81 995.7
20200226043205 4 255 3.2 16.1 0.00 0.05 0.05 81 995.8
20200226042705 5 265 3.2 17.7 0.00 0.05 0.05 82 995.8
20200226042205 5 324 3.2 27.4 0.03 0.05 0.05 81 996.0
20200226041705 5 6 6.4 27.4 0.03 0.05 0.05 79 996.0
20200226041205 5 15 9.7 32.2 0.03 0.05 0.05 79 996.0
20200226040705 5 219 9.7 32.2 0.03 0.05 0.05 79 995.8
20200226040205 5 276 9.7 32.2 0.03 0.05 0.05 80 995.8
20200226035705 5 270 8.0 22.5 0.03 0.05 0.05 82 995.7
20200226035205 5 268 6.4 20.9 0.03 0.05 0.05 85 995.6
20200226034705 4 261 6.4 20.9 0.03 0.05 0.05 86 995.6
20200226034205 4 211 6.4 20.9 0.03 0.05 0.05 87 995.4
20200226033705 4 307 4.8 19.3 0.03 0.05 0.05 89 995.6
20200226033205 4 176 4.8 14.5 0.03 0.05 0.05 89 995.7
20200226032705 4 190 3.2 14.5 0.00 0.05 0.03 89 995.5
20200226032205 4 191 4.8 11.3 0.00 0.05 0.03 89 995.6
20200226031705 4 193 3.2 9.7 0.00 0.05 0.03 88 995.3
20200226031205 4 141 3.2 16.1 0.00 0.05 0.03 88 995.3
20200226030705 4 157 3.2 16.1 0.00 0.05 0.03 88 995.3
20200226030204 4 148 3.2 16.1 0.00 0.05 0.03 88 995.5
20200226025705 4 179 3.2 11.3 0.00 0.05 0.03 88 995.6
20200226025206 4 204 3.2 12.9 0.00 0.05 0.03 88 995.7
20200226024705 4 166 3.2 12.9 0.00 0.05 0.03 87 995.5
20200226024205 4 249 3.2 12.9 0.00 0.05 0.03 87 995.6
20200226023705 4 164 1.6 14.5 0.00 0.05 0.03 87 996.0
20200226023205 4 194 1.6 14.5 0.00 0.05 0.03 87 996.0
20200226022705 4 185 3.2 14.5 0.00 0.05 0.03 87 996.1
20200226022205 4 202 4.8 11.3 0.00 0.05 0.03 87 996.1
20200226021705 5 193 3.2 11.3 0.00 0.05 0.03 87 996.1
20200226021205 5 187 3.2 11.3 0.00 0.05 0.03 87 996.1
20200226020705 5 203 3.2 11.3 0.00 0.05 0.03 86 996.2
20200226020205 5 206 3.2 16.1 0.00 0.05 0.03 86 996.3
20200226015705 5 206 3.2 16.1 0.00 0.05 0.03 86 996.3
20200226015204 5 228 4.8 16.1 0.00 0.05 0.03 86 996.5
20200226014705 5 209 4.8 16.1 0.00 0.05 0.03 86 996.6
20200226014205 5 235 4.8 16.1 0.00 0.05 0.03 86 996.5
20200226013705 5 222 3.2 16.1 0.00 0.05 0.03 86 996.8
20200226013205 5 191 3.2 9.7 0.00 0.05 0.03 86 996.7
20200226012705 5 221 1.6 9.7 0.00 0.05 0.03 86 996.7
20200226012204 5 182 0.0 3.2 0.00 0.05 0.03 86 996.8
20200226011705 5 254 0.0 9.7 0.00 0.05 0.03 86 996.8
20200226011205 5 284 0.0 9.7 0.00 0.05 0.03 86 997.0
20200226010705 5 199 1.6 9.7 0.00 0.05 0.03 86 997.0
20200226010205 5 213 0.0 9.7 0.03 0.05 0.03 85 997.1
20200226005705 5 179 0.0 8.0 0.03 0.05 0.03 85 997.2
20200226005205 5 174 1.6 8.0 0.03 0.05 0.03 85 997.1
20200226004705 5 208 1.6 8.0 0.03 0.05 0.03 84 997.4
20200226004205 5 211 1.6 8.0 0.03 0.05 0.03 83 997.5
20200226003705 5 183 1.6 8.0 0.03 0.05 0.03 83 997.4
20200226003206 5 195 1.6 16.1 0.03 0.05 0.03 82 997.5
20200226002705 5 269 1.6 16.1 0.03 0.05 0.03 81 997.7
20200226002206 6 207 1.6 16.1 0.03 0.05 0.03 81 997.7
20200226001705 6 269 3.2 17.7 0.03 0.05 0.03 80 997.8
20200226001205 6 179 4.8 29.0 0.03 0.05 0.03 79 998.0
20200226000705 6 293 6.4 29.0 0.03 0.05 0.03 79 998.1
20200226000205 6 193 4.8 19.3 0.00 0.03 0.00 76 998.4
20200225235705 7 292 3.2 11.3 0.00 0.03 0.00 78 998.6
20200225235205 7 319 1.6 11.3 0.00 0.03 0.00 77 998.2
20200225234705 7 328 1.6 8.0 0.00 0.03 0.00 77 998.2
20200225234205 7 341 1.6 6.4 0.00 0.03 0.00 77 998.2
20200225233705 7 314 1.6 6.4 0.00 0.03 0.00 77 998.4
20200225233205 7 305 1.6 17.7 0.00 0.03 0.00 77 998.2
20200225232705 7 356 1.6 17.7 0.00 0.03 0.00 76 998.4
20200225232205 7 264 1.6 6.4 0.00 0.03 0.00 76 998.2
20200225231705 7 303 1.6 6.4 0.00 0.03 0.00 76 998.2
20200225231205 7 298 1.6 11.3 0.00 0.03 0.00 76 998.4
20200225230705 7 249 1.6 14.5 0.00 0.03 0.00 76 998.4
20200225230205 7 291 3.2 14.5 0.00 0.03 0.03 76 998.2
20200225225705 7 229 3.2 14.5 0.00 0.03 0.03 76 998.2
20200225225205 7 355 3.2 25.7 0.00 0.03 0.03 75 998.2
20200225224705 7 288 3.2 25.7 0.00 0.03 0.03 75 998.2
20200225224205 7 211 3.2 16.1 0.00 0.03 0.03 75 998.1
20200225223705 7 337 3.2 16.1 0.00 0.03 0.03 75 998.2
20200225223206 7 300 3.2 16.1 0.00 0.03 0.03 75 998.2